Regional Weather Roundup
Issued by NWS Upton, NY

Current Version | Previous Version | Text Only | Print | Product List | Glossary On
Versions: 1 2 3 4 5 6 7 8 9 10 11 12 13 14 15 16 17 18 19 20 21 22 23 24 25 26 27
000
ASUS41 KOKX 270808
RWROKX

REGIONAL WEATHER ROUNDUP
NATIONAL WEATHER SERVICE NEW YORK NY
400 AM EDT MON MAR 27 2017

NOTE: "FAIR" INDICATES FEW OR NO CLOUDS BELOW 12,000 FEET WITH NO
SIGNIFICANT WEATHER AND/OR OBSTRUCTIONS TO VISIBILITY.

NYZ071-072-176-178-NJZ106-104-270900-
NEW YORK CITY METRO AREA

CITY           SKY/WX    TMP DP  RH WIND       PRES   REMARKS
Central Park   CLOUDY    38  37  97 NE7       30.22F FOG     WCI  33
Wall St Helipt CLOUDY    39  37  92 NE12      30.20F FOG     WCI  32
LaGuardia APRT DRIZZLE   40  37  89 NE10      30.20F FOG     WCI  33
Kennedy INTL   DRIZZLE   40  40 100 E8        30.20F FOG     WCI  34
Breezy Point     N/A     39 N/A N/A E9          N/A  WCI  33
Newark/Liberty DRIZZLE   39  39 100 NE6       30.20F FOG     WCI  35
Teterboro      CLOUDY    39  37  92 NE6       30.20F FOG     WCI  35
$$

NYZ177-179-078>081-270900-
LONG ISLAND NEW YORK

CITY           SKY/WX    TMP DP  RH WIND       PRES   REMARKS
Jones Beach      N/A     39 N/A N/A E15         N/A  WCI  31
Matinecock PT  NOT AVBL
Farmingdale    CLOUDY    39  39 100 E7        30.20F FOG     WCI  34
MacArthur/ISP  CLOUDY    39  39 100 E9        30.19F FOG     WCI  33
Shirley        CLOUDY    39  39 100 VRB5      30.21F FOG
Westhampton    CLOUDY    39  37  92 E8        30.22F FOG     WCI  33
East Hampton   CLOUDY    37  37  97 E8        30.22F WCI  31
Montauk          N/A     39  38  96 VRB6      30.25F WCI  35
$$

NYZ052-065-067-270900-
HUDSON VALLEY

CITY           SKY/WX    TMP DP  RH WIND       PRES   REMARKS
White Plains   DRIZZLE   36  35  96 E9G18     30.18F FOG     WCI  29
Newburgh       LGT RAIN  36  36 100 E7        30.19F FOG     WCI  30
Montgomery     RAIN      36  34  92 NE6       30.18F FOG     WCI  31
Poughkeepsie   CLOUDY    35  33  92 CALM      30.20F
Albany         CLOUDY    36  31  82 S14       30.17F WCI  27
$$

NJZ001-105-106-008-010-013-015-019>022-104-270900-
NEW JERSEY

CITY           SKY/WX    TMP DP  RH WIND       PRES   REMARKS
Newark/Liberty DRIZZLE   39  39 100 NE6       30.20F FOG     WCI  35
Teterboro      CLOUDY    39  37  92 NE6       30.20F FOG     WCI  35
Caldwell       LGT RAIN  37  36  96 E8        30.20F FOG     WCI  31
Somerville     LGT RAIN  40  39  97 E3        30.17F FOG
Linden         DRIZZLE   39  38  94 CALM      30.20F
Sussex         LGT RAIN  36  36 100 NE5       30.17F WCI  32
Andover          N/A     37  35  92 CALM      30.16F
Trenton        CLOUDY    40  40 100 E8        30.17F FOG     WCI  34
Millville      FOG       45  45 100 E5        30.15S VSB 1/4
Atlantic City  FOG       44  43  96 E7        30.16F VSB 1/4
Wrightstown    CLOUDY    41  40  97 E8        30.13F FOG
Toms River     LGT RAIN  41  41 100 NE7       30.17F FOG
Belmar         CLOUDY    40  40 100 NE9       30.18F FOG     WCI  34
$$

PAZ047>061-062-071-270900-
EASTERN PENNSYLVANIA

CITY           SKY/WX    TMP DP  RH WIND       PRES   REMARKS
Philadelphia   FOG       42  41  96 E8        30.17F VSB 1
Allentown      LGT RAIN  40  37  89 E6        30.15F FOG
Scranton       LGT RAIN  40  38  93 N7        30.08F FOG
$$

CTZ002-004>006-009-010-012-RIZ004-006-007-MAZ004-011-015-270900-
SOUTHERN NEW ENGLAND
 IN CT

CITY           SKY/WX    TMP DP  RH WIND       PRES   REMARKS
Bradley INTL   DRIZZLE   34  33  96 NE3       30.26F FOG
Hartford       CLOUDY    35  33  92 NE6       30.25F FOG     WCI  30
Danbury        CLOUDY    35  34  96 E7        30.21F FOG     WCI  29
Wtrbury/Oxford CLOUDY    34  30  86 E8        30.21F WCI  27
Bridgeport     CLOUDY    38  35  89 E14       30.23F FOG     WCI  30
Meriden        CLOUDY    36  33  89 N3        30.24F FOG
New Haven      CLOUDY    36  35  96 NE7       30.23F FOG     WCI  30
Chester        NOT AVBL
Groton         CLOUDY    37  35  92 NE8       30.25F WCI  31
Wilimantic     LGT RAIN  36  34  92 NE5       30.27F FOG     WCI  32

 IN RI

CITY           SKY/WX    TMP DP  RH WIND       PRES   REMARKS
Providence     CLOUDY    36  32  85 E5        30.28F WCI  32
Block Island   CLOUDY    37  37 100 E12G18    30.25F WCI  29
Westerly       CLOUDY    37  36  96 NE7       30.26F WCI  32
 IN MA

CITY           SKY/WX    TMP DP  RH WIND       PRES   REMARKS
Boston         CLOUDY    37  32  82 E12       30.31F WCI  29
Worcester      CLOUDY    31  28  89 E7        30.24F WCI  24
Westfield      CLOUDY    34  32  92 CALM      30.25F
Provincetown   CLOUDY    39  35  86 E7        30.31F WCI  34
Nantucket      CLOUDY    40  37  89 E14       30.27F WCI  32
$$

ANZ330-335-338-340-345-350-353-355-270900-
COASTAL MARINE OBSERVATIONS


STATION/POSITION TIME  SKY/WX   TEMP    WIND        PRES    VSBY  WAVE
                                AIR SEA DIR/SP/G                  HT/PER
                 (UTC)          (F)     (DEG/KT/KT) (MB)    (MI)  (FT/S)
NY HARB ENTRANCE 0650            41 42   60/ 17/ 19 1023.1          5/ 7
20 S FIRE ISLAND 0750            42 40   80/ 16/ 17 1021.5          6/ 7
GREAT SOUTH BAY  NOT AVBL
23 SSW MONTAUK P 0650            40 43              1024.7
15 E BARNEGAT LI 0730               43                N/A           6/ 7
HUDSON CANYON    0650            45 44   60/ 10/ 12 1022.5          7/ 8
KINGS POINT      0742            37 39              1022.6
EXECUTION ROCKS  NOT AVBL
CENTRAL LI SOUND 0730            38      80/ 16/ 17   N/A           2/ 5
EASTERN LI SOUND NOT AVBL
ROBBINS REEF     0742            38      40/  7/  8 1022.8
$$


>>>>>>>>>>>>>>>>>>>>>>>>>>>> KEY <<<<<<<<<<<<<<<<<<<<<<<<<<<
>                                                          <
>     SKY/WX - Sky Condition/Present Weather               <
>     TMP    - Temperature in Fahrenheit                   <
>     DP     - Dew Point in Fahrenheit                     <
>     RH     - Relative Humidity in Percent                <
>     WIND   - Direction (from) and Speed in MPH           <
>     PRES   - Mean Sea Level Pressure (inches of Hg)      <
>     WCI    - Wind Chill Index                            <
>     VSB    - VISIBILITY IN MILES                         <
>     HX     - HEAT INDEX                                  <
>     TC     - TEMPERATURE IN CELSIUS                      <
>     VRB    - VARIABLE WIND DIRECTION                     <
>                                                          <
>>>>>>>>>>>>>>>>>>>>>>>>>>>> KEY <<<<<<<<<<<<<<<<<<<<<<<<<<<




USA.gov is the U.S. government's official web portal to all federal, state and local government web resources and services.